Baltimore International Airport Airport (BWI)

 

Airport Diagram
Current Weather/Forecast (MVFR Conditions)
METAR KBWI 312054Z 10013KT 8SM OVC012 08/06 A2989 RMK AO2 DZE38 SLP120 P0001 60001 T00830056 56011
TAF KBWI 312100Z 3121/0124 08012KT P6SM -SHRA OVC015 FM010000 10010KT 6SM -RA OVC015 FM010500 06008KT P6SM OVC035 FM010900 03008KT P6SM OVC050 FM011700 36009KT P6SM BKN045

All Charts
General
Chart Name Download
AIRPORT DIAGRAM
TAKEOFF MINIMUMS
ALTERNATE MINIMUMS

Departures
Chart Name Download
CONLE THREE (RNAV)
CONLE THREE (RNAV), CONT.1
FIXET THREE (RNAV)
FIXET THREE (RNAV), CONT.1
PALEO THREE
SWANN THREE
TERPZ SEVEN (RNAV)
TERPZ SEVEN (RNAV), CONT.1

Arrivals
Chart Name Download
ANTHM THREE (RNAV)
ANTHM THREE (RNAV), CONT.1
ANTHM THREE (RNAV), CONT.2
MIIDY TWO (RNAV)
RAVNN SIX (RNAV)
RAVNN SIX (RNAV), CONT.1
RIPKN TWO
RIPKN TWO, CONT.1
TRISH THREE (RNAV)
TRISH THREE (RNAV), CONT.1
WESTMINSTER SEVEN

Approaches
Chart Name Download
ILS OR LOC RWY 10
ILS OR LOC RWY 15L
ILS OR LOC RWY 28
ILS OR LOC RWY 33L
ILS OR LOC RWY 33R
ILS OR LOC RWY 15R
ILS RWY 10 (SA CAT I)
ILS RWY 33L (SA CAT I - II)
ILS RWY 10 (CAT II - III)
RNAV (RNP) Z RWY 10
RNAV (RNP) Z RWY 15R
RNAV (RNP) Z RWY 28
RNAV (RNP) Z RWY 33L
RNAV (GPS) RWY 15L
RNAV (GPS) RWY 33R
RNAV (GPS) Y RWY 10
RNAV (GPS) Y RWY 15R
RNAV (GPS) Y RWY 28
RNAV (GPS) Y RWY 33L
INTERSTATE VISUAL RWY 33L


Inbound Traffic (Arrivals)

No inbound traffic.


Outbound Traffic (Departures)

No outbound traffic.